Tracking 25686 objects as of 26-May-2022
HD Live streaming from Space Station
objects crossing your sky now

SL-3 R/B

Track SL-3 R/B now!
10-day predictions


NORAD ID: 7575
Int'l Code: 1974-099B
Perigee: 826.9 km
Apogee: 898.5 km
Inclination: 81.2 °
Period: 102.0 minutes
Semi major axis: 7233 km
RCS: 7.4067 m2 (large)
Launch date: December 17, 1974
Source: Commonwealth of Independent States (former USSR) (CIS)
Launch site: PLESETSK MISSILE AND SPACE COMPLEX (PKMTR)

Note: This is a ROCKET BODY
aabbcc
Your satellite tracking list
Your tracking list is empty




NASA's NSSDC Master Catalog

Two Line Element Set (TLE):
1  7575U 74099B   22145.66654660  .00000069  00000-0  30901-4 0  9998
2  7575  81.2462 355.4221 0049511 196.5317 163.4243 14.11122767441030
Source of the keplerian elements: AFSPC